Total_Precipitation_Accumulation
0.25 0.49 1.12 1.82 2.99 3.32 2.60 1.76 1.25 1.03 1.01 0.97 0.88 0.92 1.01 1.28 1.84 3.00 3.08 2.67 2.09 2.14 2.74 3.08 3.52 3.40 3.26 3.13 3.24 3.53 3.42 3.05 2.91 3.06 2.85 2.76 2.79 2.69 2.70 2.79 2.86 2.86 2.77 2.86 3.05 2.99 3.06 3.11 3.12
0.48 0.91 1.67 2.77 3.58 2.98 2.45 1.72 1.05 0.88 0.83 0.94 0.94 0.85 0.77 0.89 1.07 1.71 2.49 2.55 1.77 1.72 2.17 2.38 2.88 2.97 3.03 2.92 2.92 3.21 3.07 2.78 2.77 2.71 2.68 2.73 2.74 2.76 2.79 2.90 2.97 2.98 2.89 2.93 3.02 3.01 3.07 3.11 3.15
0.76 1.19 2.04 3.15 2.72 2.20 2.06 1.50 0.94 0.65 0.74 1.01 1.01 0.75 0.87 1.26 1.34 1.79 2.16 1.97 1.63 1.65 1.87 2.28 2.66 2.76 2.85 2.69 2.59 2.76 2.62 2.52 2.56 2.56 2.58 2.67 2.77 2.82 2.86 2.87 2.97 3.22 3.27 3.22 3.16 3.24 3.31 3.23 3.08
1.07 1.54 2.19 2.46 1.72 1.24 1.20 1.15 0.88 0.76 0.88 1.00 0.89 0.82 1.05 1.46 1.46 1.61 1.57 1.48 1.39 1.69 1.90 2.30 2.75 2.74 2.69 2.51 2.36 2.41 2.44 2.41 2.44 2.48 2.62 2.71 2.78 2.80 2.82 2.87 3.02 3.34 3.37 3.15 3.18 3.33 3.33 3.34 3.26
1.29 1.94 2.63 2.11 1.50 1.02 0.81 0.79 0.77 0.90 0.99 1.08 0.92 0.97 1.45 1.66 1.30 1.22 1.17 1.34 1.44 1.78 2.13 2.48 2.82 2.87 2.78 2.56 2.33 2.26 2.21 2.27 2.31 2.34 2.51 2.60 2.63 2.58 2.66 2.80 2.81 2.83 2.96 3.11 3.19 3.18 3.13 3.27 3.27
1.66 2.04 2.22 1.68 1.17 0.80 0.64 0.65 0.78 0.96 0.92 0.95 1.02 1.20 1.90 1.89 1.38 1.22 1.19 1.40 1.62 1.84 2.23 2.77 3.10 3.15 3.01 2.73 2.42 2.29 2.19 2.11 2.10 2.14 2.18 2.31 2.41 2.49 2.74 2.84 2.63 2.48 2.65 2.99 3.16 3.14 3.17 3.21 3.20
1.77 2.07 1.90 1.28 0.98 0.80 0.69 0.63 0.68 0.87 0.95 1.09 1.08 1.25 1.93 2.14 1.58 1.25 1.38 1.76 1.99 2.08 2.18 2.71 3.04 3.14 3.19 2.95 2.55 2.42 2.25 2.08 2.02 1.95 2.01 2.09 2.24 2.35 2.58 2.80 2.71 2.51 2.57 2.88 3.16 3.21 3.40 3.25 3.02
1.29 1.51 1.50 1.08 0.88 0.75 0.58 0.57 0.68 0.87 0.99 0.95 1.04 1.29 1.67 1.77 1.47 1.40 1.70 2.26 2.59 2.59 2.43 2.32 2.44 2.87 3.10 2.89 2.73 2.67 2.34 2.04 2.00 2.02 2.21 2.41 2.55 2.62 2.73 2.75 2.95 2.70 2.63 2.86 3.19 3.29 3.32 3.19 3.15
0.95 1.27 1.37 0.97 0.72 0.62 0.53 0.56 0.61 0.66 0.74 0.94 1.16 1.37 1.39 1.22 1.25 1.49 1.89 2.41 2.79 2.66 2.56 2.30 2.19 2.40 2.61 2.47 2.34 2.56 2.33 2.15 2.32 2.57 2.73 2.85 2.89 2.67 2.85 2.89 3.41 3.29 3.18 3.33 3.50 3.60 3.71 3.70 3.69
0.83 1.10 0.91 0.57 0.47 0.49 0.46 0.47 0.49 0.72 1.02 1.43 1.66 1.57 1.35 1.21 1.34 1.64 1.96 2.17 2.31 2.37 2.35 2.40 2.20 2.24 2.29 2.10 2.37 2.88 2.56 2.57 2.87 3.00 2.86 3.43 3.63 3.39 2.78 3.01 3.72 3.92 3.97 4.02 4.05 4.25 4.16 3.98 3.88
0.65 0.68 0.48 0.36 0.31 0.35 0.39 0.40 0.47 0.73 1.30 1.72 1.91 1.59 1.37 1.39 1.54 1.69 2.10 2.32 2.43 2.44 2.32 2.43 2.33 2.31 2.47 2.67 2.68 2.97 3.09 3.27 3.41 3.40 3.40 3.79 3.60 3.23 2.94 3.21 3.75 3.96 3.95 4.01 4.17 4.37 3.98 3.88 4.01
0.36 0.31 0.25 0.24 0.23 0.25 0.28 0.35 0.55 0.80 1.23 1.48 1.39 1.22 1.20 1.49 1.71 1.92 2.27 2.63 2.75 2.88 2.83 2.63 2.51 2.74 2.94 2.90 2.83 2.76 2.59 2.70 2.93 3.07 3.01 3.55 4.02 3.88 3.73 3.86 3.82 4.06 4.21 4.52 4.24 4.26 4.19 4.15 4.01
0.26 0.22 0.20 0.21 0.23 0.24 0.25 0.34 0.53 0.85 1.04 1.08 0.95 0.99 1.28 1.63 1.90 2.38 2.88 2.97 2.95 3.25 3.43 3.27 3.15 3.15 3.05 3.18 2.84 2.53 2.51 2.38 2.34 2.73 3.02 3.26 3.69 3.87 3.93 3.75 3.74 3.58 3.73 3.87 3.91 3.65 3.93 4.19 4.19
0.19 0.17 0.20 0.23 0.23 0.24 0.31 0.41 0.54 0.78 0.84 0.84 0.92 1.15 1.37 1.79 2.11 2.66 3.17 3.25 3.36 3.67 3.90 3.84 3.84 3.65 3.37 3.15 3.09 3.06 2.77 2.70 2.38 2.63 2.79 3.06 3.42 3.59 3.48 3.55 3.69 3.51 3.55 3.56 3.61 3.64 4.06 4.36 4.41
0.16 0.21 0.29 0.29 0.26 0.28 0.38 0.71 0.72 0.85 0.91 0.90 1.10 1.23 1.60 2.05 2.32 2.66 2.90 3.30 3.75 4.21 4.31 4.27 4.25 4.23 4.21 3.89 3.52 3.19 3.11 2.88 2.80 2.82 2.74 2.96 3.28 3.53 3.47 3.44 3.29 3.29 3.39 3.59 3.64 3.78 4.06 4.03 4.11
0.26 0.46 0.61 0.46 0.37 0.34 0.48 1.10 1.13 1.00 0.96 1.05 1.23 1.48 1.72 2.00 2.41 2.65 2.98 3.34 3.77 4.35 4.78 4.88 4.34 4.40 4.51 4.47 4.16 3.68 3.61 3.48 3.32 3.02 2.87 2.85 3.13 3.25 3.31 3.14 3.03 3.08 2.97 3.15 3.48 3.55 3.67 3.91 4.14
0.33 0.49 0.58 0.56 0.40 0.38 0.54 1.16 1.44 1.16 0.96 1.10 1.39 1.63 1.93 2.16 2.59 2.72 2.91 3.19 3.68 4.64 5.60 5.62 5.13 4.74 4.50 4.50 4.59 4.42 4.23 3.93 3.46 3.26 3.17 3.00 2.87 2.68 2.81 2.89 2.98 2.82 2.80 2.92 2.81 3.40 3.63 3.81 4.04
0.27 0.34 0.48 0.63 0.45 0.42 0.59 1.06 1.13 1.10 1.20 1.16 1.25 1.43 1.69 1.81 2.13 2.40 2.69 3.24 4.07 5.32 6.15 6.07 5.46 5.09 4.82 4.65 4.54 4.55 4.29 4.01 3.55 3.38 3.23 2.95 2.94 2.60 2.68 2.66 2.76 2.66 2.85 3.10 3.33 3.67 3.63 3.52 3.70
0.21 0.27 0.40 0.47 0.38 0.48 0.64 0.98 1.12 1.24 1.40 1.34 1.23 1.25 1.49 1.67 1.96 2.43 2.98 3.80 4.90 5.88 6.19 5.72 5.28 5.03 4.67 4.33 3.76 3.48 3.61 3.55 3.32 2.96 2.59 2.55 2.47 2.56 2.87 2.63 2.86 2.68 2.85 3.00 3.12 3.32 3.37 3.25 3.40
0.20 0.26 0.37 0.43 0.34 0.39 0.69 1.10 1.40 1.38 1.31 1.25 1.33 1.33 1.40 1.75 2.18 2.89 3.90 4.44 4.74 4.91 4.67 4.38 4.21 4.07 3.58 3.35 3.29 3.13 3.19 2.94 2.80 2.68 2.77 2.37 2.23 2.32 2.35 2.75 2.74 2.77 3.04 3.04 3.04 3.26 3.19 3.08 3.20
0.22 0.26 0.34 0.41 0.32 0.40 0.71 1.33 1.61 1.52 1.26 1.16 1.29 1.31 1.44 1.80 2.36 3.17 3.76 3.88 3.63 3.30 3.17 3.16 3.31 3.12 3.03 3.13 3.11 3.06 3.16 2.86 2.68 2.66 2.77 2.36 2.04 2.04 2.18 2.36 2.58 2.82 2.73 2.93 3.04 2.96 3.12 3.19 3.15
0.25 0.20 0.19 0.23 0.35 0.61 0.84 1.60 1.76 1.55 1.46 1.28 1.33 1.29 1.31 1.54 1.91 2.34 2.62 2.50 2.59 2.71 2.73 2.87 3.00 2.82 2.87 2.92 2.71 2.63 2.58 2.47 2.47 2.53 2.62 2.64 2.19 2.01 2.02 2.12 2.34 2.56 2.46 2.78 2.56 2.78 3.19 3.24 3.02
0.16 0.14 0.18 0.26 0.42 0.66 0.88 1.30 1.54 1.36 1.56 1.31 1.14 1.09 1.02 1.21 1.38 1.53 1.62 1.73 1.92 2.04 2.21 2.48 2.79 2.82 2.70 2.58 2.58 2.63 2.47 2.48 2.48 2.50 2.60 2.70 2.49 2.19 1.96 2.05 2.28 2.40 2.37 2.48 2.54 2.96 3.00 2.98 2.97
0.13 0.17 0.28 0.40 0.62 1.20 1.17 1.19 1.46 1.47 1.48 1.28 1.10 0.92 0.97 1.09 1.24 1.35 1.36 1.45 1.63 1.77 1.97 2.22 2.61 2.77 2.74 2.58 2.50 2.53 2.59 2.61 2.55 2.59 2.58 2.40 2.37 2.33 2.13 2.12 2.30 2.28 2.30 2.37 2.46 2.76 2.78 2.96 3.11
0.15 0.23 0.52 0.88 1.27 1.44 0.98 1.07 1.37 1.25 1.10 0.98 0.78 0.73 0.82 1.00 1.16 1.34 1.36 1.35 1.45 1.56 1.68 1.79 2.08 2.40 2.55 2.51 2.50 2.49 2.66 2.59 2.38 2.29 2.27 2.24 2.02 1.97 2.04 2.12 2.32 2.22 2.24 2.32 2.64 2.79 2.74 2.92 2.97
0.13 0.17 0.35 0.54 0.62 0.75 0.95 1.39 1.48 1.21 0.83 0.58 0.57 0.71 0.89 1.02 1.10 1.23 1.29 1.26 1.31 1.37 1.52 1.67 1.99 2.19 2.37 2.42 2.41 2.43 2.49 2.39 2.22 2.26 2.08 2.07 1.98 1.89 1.97 2.08 2.10 2.11 2.18 2.21 2.68 2.55 2.62 2.79 2.72
0.14 0.15 0.16 0.26 0.30 0.56 1.01 1.30 1.25 1.07 0.84 0.67 0.64 0.74 0.96 0.97 0.93 1.04 1.11 1.23 1.31 1.29 1.44 1.58 1.87 2.25 2.48 2.58 2.64 2.58 2.55 2.52 2.46 2.39 2.16 1.97 2.09 1.98 2.08 2.16 2.18 2.20 2.36 2.52 2.75 2.57 2.61 2.78 2.59
0.13 0.16 0.20 0.24 0.34 0.51 0.83 1.28 1.47 1.29 1.06 0.90 0.82 0.83 0.93 0.95 0.92 1.11 1.32 1.40 1.28 1.15 1.26 1.41 1.71 2.21 2.52 2.69 2.66 2.50 2.69 2.58 2.55 2.46 2.25 2.08 2.08 2.13 2.27 2.41 2.40 2.47 2.48 2.59 2.76 2.55 2.69 2.72 2.59
0.13 0.15 0.20 0.23 0.25 0.36 0.68 0.95 0.91 0.90 0.86 0.84 0.89 0.86 0.75 0.86 0.97 1.20 1.50 1.51 1.34 1.15 1.12 1.28 1.67 2.02 2.28 2.48 2.56 2.41 2.35 2.30 2.33 2.35 2.28 2.22 2.22 2.20 2.23 2.36 2.42 2.40 2.44 2.57 2.70 2.49 2.58 2.57 2.59
0.14 0.17 0.22 0.26 0.25 0.25 0.40 0.68 0.54 0.62 0.69 0.80 0.94 1.00 0.94 0.96 1.02 1.08 1.27 1.46 1.35 1.26 1.21 1.42 1.74 1.94 2.08 2.20 2.25 2.19 2.17 2.17 2.12 2.07 2.14 2.22 2.13 2.04 2.12 2.22 2.23 2.17 2.30 2.51 2.53 2.42 2.51 2.57 2.53